Presure
144 141 141 140 139 144 143 143 148 204 157 208 208 221 232 226 228 231 234 240 257 239 226 219 241 283 315 311 300 296 292 290 285 280 279 279 278 281 126 127 307 451 397
142 143 157 161 160 195 211 212 210 205 216 203 205 226 244 237 235 261 256 234 216 215 254 309 309 299 290 279 270 265 261 260 255 299 293 284 286 327 334 326 369 425 458
205 203 191 190 194 197 204 204 211 211 211 248 259 257 215 267 250 220 207 223 251 308 297 278 258 254 254 265 284 290 282 268 266 266 262 273 268 265 284 328 312 349 438
193 190 188 191 190 204 199 207 215 238 274 263 273 259 241 207 225 219 227 304 271 258 252 267 302 305 281 260 280 277 259 261 259 256 248 260 262 278 283 268 286 324 320
180 197 190 194 202 210 220 233 266 267 269 249 204 209 223 208 322 285 263 251 244 281 311 270 262 256 255 251 250 250 246 204 197 249 250 250 254 263 269 278 285 273 320
194 194 202 213 222 230 248 271 241 195 193 211 211 219 311 275 254 249 241 279 256 256 245 249 244 243 237 236 238 237 239 218 237 237 251 243 247 245 254 254 266 276 284
202 211 217 223 272 267 217 193 198 213 219 220 258 264 250 248 255 279 265 250 247 228 240 240 238 230 230 227 209 226 225 229 236 237 238 238 243 243 241 258 265 260 256
216 216 271 173 191 193 193 198 212 272 281 259 253 267 286 273 260 247 244 240 239 235 226 228 228 244 221 222 217 225 231 230 225 224 224 219 228 239 250 262 241 236 269
178 173 183 191 203 211 236 315 280 261 275 276 265 253 247 244 234 236 225 223 214 199 210 220 223 222 234 231 219 223 228 234 217 236 229 237 232 242 250 251 258 260 250
183 192 198 203 243 303 270 259 264 255 242 231 238 231 230 225 228 206 220 218 212 201 211 208 212 217 222 223 224 224 224 232 229 236 238 238 244 217 255 238 245 249 238
202 204 257 298 258 246 259 248 233 232 236 227 224 215 214 217 217 213 221 221 218 212 211 204 209 214 218 208 222 223 223 225 210 240 249 231 234 253 243 237 257 234 250
310 294 254 241 254 242 243 238 220 224 214 213 225 197 220 222 215 208 204 213 214 207 201 200 212 218 215 214 197 205 215 218 215 224 237 245 235 247 243 264 262 254 252
260 279 265 250 232 232 220 224 209 215 216 206 220 212 197 209 211 212 198 193 196 213 204 209 206 202 212 204 222 229 219 210 227 216 231 234 237 234 257 253 250 256 258
259 244 241 228 207 201 215 207 200 211 166 196 210 201 198 196 199 204 215 209 206 205 204 193 207 206 193 216 205 221 177 133 199 208 225 241 238 251 248 195 255 248 269
220 206 213 212 210 206 204 201 197 205 206 203 205 191 198 210 204 201 192 194 194 195 199 204 196 204 199 199 222 223 226 208 227 212 239 239 240 250 262 261 264 256 257
209 210 200 198 205 194 191 190 196 204 181 200 199 204 201 199 195 187 211 211 189 188 186 195 213 205 218 199 204 207 204 209 205 228 186 223 176 256 256 262 249 259 261
179 150 193 198 197 205 202 192 189 196 204 184 200 191 192 191 190 185 183 198 196 201 203 210 193 194 218 226 220 212 217 216 218 211 234 227 254 269 266 248 255 278 271
199 200 200 188 190 197 192 185 186 189 190 196 188 181 182 182 174 185 210 214 214 197 190 190 207 221 216 222 233 221 212 234 205 219 242 173 253 272 262 254 269 290 260
192 177 193 193 190 181 176 202 184 177 186 195 205 189 210 211 211 207 193 184 204 202 216 222 223 228 208 231 233 222 221 229 222 228 220 251 265 271 263 254 267 274 285
186 176 171 173 166 138 132 177 182 209 195 184 207 211 209 216 225 222 219 215 217 218 230 235 231 231 171 235 229 213 222 236 224 254 241 260 268 269 280 266 274 255 286
204 177 212 177 188 194 204 191 192 199 202 215 220 220 206 209 201 204 230 227 224 232 227 224 222 238 223 195 225 247 242 234 249 239 268 265 271 282 297 274 260 286 285
176 179 184 214 217 195 210 211 193 219 221 203 232 235 197 236 237 228 213 232 232 240 220 227 243 236 250 220 255 214 236 222 280 271 277 294 266 315 273 259 275 281 277
201 193 189 199 190 190 230 200 191 208 211 209 212 209 213 220 232 250 236 240 239 226 234 235 245 244 180 252 258 185 243 255 265 298 295 331 316 269 268 265 287 282 278
198 208 211 205 208 192 197 183 203 179 207 210 236 195 215 170 232 246 262 267 225 212 261 222 202 234 257 258 241 271 280 303 349 303 329 315 220 303 266 282 281 277 275
191 191 192 171 214 193 226 217 244 250 209 237 235 245 241 147 235 250 225 283 273 268 167 225 263 213 261 317 327 317 369 362 337 320 316 291 278 276 279 279 276 276 278
234 191 221 232 229 215 231 243 229 162 243 218 199 236 244 243 237 273 293 297 306 325 259 341 272 265 372 368 323 382 353 291 323 332 317 272 284 285 281 276 276 278 275
Wind_Speed
74 75 78 78 78 79 78 79 81 81 81 82 84 82 80 84 84 82 82 81 77 78 81 83 81 73 49 44 44 45 46 47 47 49 52 56 60 61 68 63 62 51 64
77 78 77 77 80 76 74 75 79 82 80 84 84 81 79 79 80 75 73 75 78 80 70 48 43 42 40 39 40 41 42 46 46 41 42 47 50 39 39 46 42 36 47
61 62 67 72 74 77 77 79 79 80 82 82 76 73 77 68 69 73 75 76 68 40 38 36 37 39 40 41 37 35 36 39 42 44 47 45 49 52 48 41 40 36 31
60 66 70 73 76 76 80 79 78 83 71 70 65 62 65 69 70 72 74 35 35 35 37 38 35 27 31 34 32 32 39 38 39 41 46 44 45 39 43 46 42 38 32
66 67 72 75 75 75 75 79 73 66 61 59 63 64 66 70 36 33 33 36 36 33 29 29 29 28 28 31 34 34 36 46 50 39 38 38 37 40 40 42 37 39 36
68 70 71 72 75 78 79 60 57 59 62 62 64 65 36 31 35 36 35 27 27 25 29 27 28 25 30 32 34 36 38 42 41 42 41 39 38 38 41 42 42 40 33
67 69 70 76 65 57 58 58 60 63 63 62 43 32 36 35 32 20 18 24 23 30 25 26 27 30 30 34 41 38 41 42 43 44 44 45 43 42 43 44 45 44 42
69 68 60 60 57 58 60 63 63 48 34 35 35 29 23 17 15 20 20 21 23 24 29 30 30 34 32 34 37 40 42 43 45 45 46 48 46 46 48 49 46 47 49
48 56 56 56 58 59 58 28 28 30 20 15 13 15 16 17 20 20 24 27 30 42 39 32 33 35 38 41 41 43 46 48 47 52 50 52 51 53 54 54 54 53 51
51 54 55 56 54 25 25 24 14 12 17 22 16 19 20 24 24 37 29 29 33 41 37 38 39 41 43 45 47 47 49 52 52 56 57 58 58 52 60 52 55 57 53
51 54 50 24 27 27 13 15 21 22 15 19 19 30 29 26 27 30 29 30 33 38 41 44 45 47 49 47 52 53 54 56 52 64 65 58 60 63 59 56 60 55 59
29 27 28 28 17 16 16 15 24 19 25 29 22 41 25 24 28 35 41 38 39 42 44 46 52 55 55 55 51 54 57 58 56 61 67 68 62 64 63 66 65 60 59
26 19 13 12 15 15 22 19 30 27 26 35 24 30 41 38 37 38 40 43 45 48 51 53 53 54 59 56 62 61 62 60 69 58 71 68 69 68 74 66 64 67 66
12 11 13 12 22 30 24 27 33 31 38 39 32 36 40 44 45 46 46 48 49 52 54 52 57 60 53 65 62 68 61 59 63 65 70 80 75 82 77 63 70 65 70
10 19 17 20 24 26 29 31 34 35 36 38 39 44 43 42 46 50 52 55 57 59 60 64 63 68 59 64 68 71 72 68 75 64 82 81 79 82 81 78 76 73 72
17 19 25 27 27 33 36 39 41 38 42 44 46 44 47 49 53 53 54 55 59 58 56 67 67 72 70 65 67 69 67 69 63 80 68 71 58 90 84 80 74 77 77
27 34 32 32 36 35 37 43 45 47 45 50 48 54 54 58 59 59 60 65 72 72 72 70 67 69 74 75 75 74 77 77 79 77 88 77 92 90 84 77 80 81 79
30 32 34 36 39 40 45 48 51 53 54 54 56 57 60 62 57 66 71 69 69 68 70 72 74 75 77 78 79 79 80 85 76 81 92 66 95 88 83 80 84 77 76
36 39 39 41 44 48 49 54 55 57 64 65 63 67 66 68 69 70 76 72 79 80 77 79 79 80 80 80 80 82 85 87 84 89 77 97 94 88 84 80 82 79 77
44 45 43 44 48 57 54 59 64 60 65 71 67 70 72 77 81 79 77 78 78 77 88 89 85 82 71 88 84 85 86 91 88 102 95 97 95 88 83 82 79 76 78
40 49 47 56 55 60 64 66 68 69 67 73 77 80 77 79 82 81 90 86 83 89 84 83 86 91 84 76 89 100 97 91 101 94 100 94 88 80 74 78 77 75 78
53 56 58 54 55 59 60 67 68 75 80 72 91 91 82 95 95 91 82 93 91 97 82 87 91 86 103 93 108 79 93 81 101 95 93 87 85 66 77 75 77 76 78
51 53 56 55 58 61 77 62 71 73 78 74 80 79 84 87 92 97 94 98 92 82 84 83 90 88 73 99 104 67 93 96 94 86 82 60 65 76 74 77 73 76 78
53 63 66 65 70 69 75 74 77 79 79 82 89 87 86 65 90 96 100 105 93 87 106 85 71 83 97 98 90 103 99 83 65 74 58 62 68 62 73 71 74 76 78
59 70 64 63 77 75 84 84 89 92 88 88 91 96 93 57 93 97 89 106 104 103 68 87 102 80 98 103 92 87 62 52 57 59 58 64 66 67 67 69 72 75 78
84 70 83 88 87 77 85 94 87 57 98 84 75 91 95 94 97 102 104 103 103 103 89 93 89 84 71 65 71 47 53 66 55 48 50 63 62 61 66 69 72 75 74
Wind_Direction
262 262 263 264 266 269 270 271 273 281 275 282 282 282 285 284 286 286 287 289 291 290 290 290 289 289 296 300 297 296 295 295 293 293 292 290 287 285 277 278 284 266 250
260 262 265 268 270 277 281 280 280 280 282 282 285 286 289 289 290 293 292 291 291 291 290 292 296 299 299 299 295 294 294 297 293 300 297 296 296 317 315 301 327 283 260
274 276 274 276 278 278 279 279 281 284 285 292 290 291 288 293 292 291 291 292 293 298 299 299 293 291 291 297 304 306 306 302 299 298 297 297 296 296 305 334 314 333 288
273 274 275 276 277 276 278 281 284 294 288 289 291 293 292 289 292 292 294 299 297 295 294 302 307 306 309 309 313 312 307 306 302 300 298 300 300 312 314 302 313 330 323
274 273 275 276 279 283 289 295 287 288 291 293 290 290 292 291 298 299 297 296 294 307 311 313 313 309 314 316 315 312 308 283 280 306 304 300 301 306 311 316 319 306 332
273 276 278 283 289 292 291 287 290 291 288 292 291 292 295 294 292 295 296 309 305 312 311 310 310 311 307 305 307 306 306 294 300 299 306 300 301 300 306 302 308 312 311
278 282 286 289 284 282 287 291 291 291 291 293 293 288 290 295 301 305 306 304 313 306 305 306 306 303 306 304 295 305 303 304 306 306 307 304 304 301 298 307 310 302 293
285 286 279 279 286 289 290 289 290 293 290 286 291 296 301 303 304 304 309 308 307 309 304 311 312 324 305 307 302 304 305 306 302 299 298 291 298 307 311 313 296 290 306
279 275 282 286 289 287 289 293 293 291 297 306 309 304 301 299 298 304 301 302 296 297 293 305 309 306 324 320 302 306 311 314 301 313 307 311 305 310 313 313 310 309 300
280 282 286 287 287 288 285 284 284 290 295 297 290 291 292 295 304 294 300 303 301 296 301 301 305 310 315 315 314 312 312 316 313 316 316 313 315 295 312 304 308 307 297
283 283 284 282 278 282 268 270 283 287 288 291 291 293 292 293 297 298 306 307 306 305 308 305 308 310 312 306 315 315 314 314 302 319 318 311 310 313 309 304 307 295 303
278 277 273 277 273 272 261 266 289 282 287 288 293 296 303 305 298 298 301 307 309 311 307 307 314 313 314 311 302 307 311 309 305 311 315 316 311 311 308 312 309 305 301
264 257 242 237 267 263 280 276 290 288 291 291 298 300 296 306 306 307 302 299 302 309 309 311 310 308 310 308 311 310 309 308 311 308 312 311 311 309 314 309 307 307 303
243 248 241 259 286 292 279 287 291 290 290 295 299 300 301 300 303 304 306 306 307 307 307 304 306 308 303 308 308 309 302 293 302 302 310 313 312 313 312 291 308 303 304
284 291 276 275 282 285 289 293 291 294 296 299 300 300 301 302 302 304 306 307 307 308 308 306 307 305 304 303 308 308 307 307 309 303 312 313 312 313 312 311 308 306 305
278 279 285 290 288 292 292 295 295 299 296 299 301 298 299 299 300 305 301 301 305 304 304 306 303 303 304 307 305 306 305 306 302 308 292 307 294 312 311 308 307 306 304
286 282 292 290 293 291 292 299 298 300 293 304 293 300 299 300 302 305 305 302 300 300 303 298 304 302 302 304 301 301 304 305 305 304 307 309 310 310 309 307 307 303 302
286 285 290 293 295 294 296 301 303 301 298 295 298 304 303 303 300 303 298 299 299 299 303 304 299 299 299 300 302 300 303 306 303 305 310 297 310 309 308 308 305 299 304
295 299 292 291 294 303 303 282 302 307 302 296 295 301 294 295 295 294 297 303 298 297 299 300 300 301 298 300 302 300 301 303 304 304 307 307 308 307 307 308 306 303 299
299 298 294 296 295 289 295 300 297 295 291 299 297 298 296 302 303 301 298 297 299 295 301 303 303 301 295 305 300 301 303 303 302 307 305 307 307 306 303 305 303 305 299
281 291 284 297 297 286 290 286 289 291 294 301 302 301 293 295 297 293 300 299 298 301 299 299 299 305 300 299 302 305 304 304 304 302 306 305 305 303 299 303 305 300 299
290 287 285 298 297 286 297 300 287 306 304 294 301 301 293 300 299 297 295 298 299 299 300 298 303 301 303 301 304 299 299 303 306 304 303 303 303 296 302 304 302 299 302
296 283 286 294 286 288 304 292 290 300 302 293 300 295 299 301 302 297 299 298 297 295 299 300 302 303 297 302 302 298 297 300 299 302 303 296 295 302 301 302 299 300 304
294 303 305 306 305 291 299 293 294 298 293 297 299 295 296 303 299 301 298 295 296 295 296 294 295 296 302 300 294 301 302 295 295 300 294 293 295 295 301 299 300 304 306
296 300 299 297 300 296 301 303 306 307 300 303 301 302 300 302 298 301 292 294 293 294 297 293 297 299 299 298 297 298 293 291 293 294 292 294 297 297 298 299 303 305 307
299 298 304 305 305 302 308 309 304 302 306 297 300 299 300 301 299 300 297 295 295 296 296 296 294 294 293 294 298 292 292 296 296 295 292 298 296 297 299 303 306 307 310